Weather History for Rensselaer, IN

Change the Weather History Date:

Monday, February 4, 2013

  Actual Average (KVPZ) Record (KVPZ)
Temperature  
Mean Temperature 28 °F 25 °F  
Max Temperature 32 °F 32 °F 46 °F (2008)
Min Temperature 24 °F 17 °F -8 °F (2007)
Degree Days  
Heating Degree Days 37 40  
Month to date heating degree days 162  
Since 1 July heating degree days 3847  
Cooling Degree Days 0 0  
Month to date cooling degree days 0  
Year to date cooling degree days 0  
Moisture  
Dew Point 24 °F    
Average Humidity 83    
Maximum Humidity 93    
Minimum Humidity 69    
Precipitation  
Precipitation 0.03 in 0.04 in 0.35 in (2012)
Month to date precipitation 0.17  
Year to date precipitation 1.92  
Sea Level Pressure  
Sea Level Pressure 29.90 in    
Wind  
Wind Speed 5 mph (ENE)    
Max Wind Speed 10 mph    
Max Gust Speed -    
Visibility 10 miles    
Events Snow    
T = Trace of Precipitation, MM = Missing Value Source: NWS Daily Summary

Daily Weather History Graph

Daily Weather History Graph

Search for Another Location

Airport:

Trip Planner

Search our weather history database for the weather conditions in past years. The results will help you decide how hot, cold, wet, or windy it might be!

Date:

Astronomy

Feb. 04, 2013 Rise Set
Actual Time 6:55 AM CST 5:10 PM CST
Civil Twilight 6:27 AM CST 5:38 PM CST
Nautical Twilight 5:54 AM CST 6:11 PM CST
Astronomical Twilight 5:22 AM CST 6:43 PM CST
Moon 1:31 AM CST (2/4) 11:32 AM CST (2/4)
Length of Visible Light 11h 11m
Length of Day
10h 14m
Last Quarter, 37% of the Moon is Illuminated
Feb 4
Last Quarter
Feb 10
New
Feb 17
First Quarter
Feb 25
Full
Mar 4
Last Quarter

Hourly Weather History & Observations

Time (CST) Temp. Windchill Dew Point Humidity Pressure Visibility Wind Dir Wind Speed Gust Speed Precip Events Conditions
12:15 AM 26.6 °F 18.2 °F 23.0 °F 86% 30.05 in 3.0 mi West 8.1 mph - N/A Snow Light Snow
12:35 AM 24.8 °F 17.9 °F 23.0 °F 93% 30.05 in 1.5 mi West 5.8 mph - N/A Snow Light Snow
12:55 AM 24.8 °F 20.5 °F 23.0 °F 93% 30.04 in 7.0 mi WNW 3.5 mph - N/A   Overcast
1:15 AM 24.8 °F - 23.0 °F 93% 30.03 in 10.0 mi Calm Calm - N/A   Mostly Cloudy
1:35 AM 24.8 °F - 23.0 °F 93% 30.03 in 10.0 mi Calm Calm - N/A   Mostly Cloudy
1:55 AM 24.8 °F - 23.0 °F 93% 30.02 in 10.0 mi Calm Calm - N/A   Mostly Cloudy
2:15 AM 24.8 °F 19.1 °F 23.0 °F 93% 30.00 in 10.0 mi SE 4.6 mph - N/A   Mostly Cloudy
2:35 AM 24.8 °F 19.1 °F 23.0 °F 93% 29.99 in 10.0 mi SE 4.6 mph - N/A   Overcast
2:55 AM 24.8 °F 17.9 °F 23.0 °F 93% 29.98 in 10.0 mi SE 5.8 mph - N/A   Mostly Cloudy
3:15 AM 24.8 °F 17.9 °F 23.0 °F 93% 29.97 in 10.0 mi SSE 5.8 mph - N/A   Mostly Cloudy
4:55 AM 26.6 °F 18.2 °F 21.2 °F 80% 29.92 in 10.0 mi SE 8.1 mph - N/A   Mostly Cloudy
5:15 AM 26.6 °F 17.5 °F 21.2 °F 80% 29.91 in 10.0 mi SE 9.2 mph - N/A   Mostly Cloudy
5:35 AM 26.6 °F 17.5 °F 21.2 °F 80% 29.91 in 10.0 mi SSE 9.2 mph - N/A   Overcast
5:55 AM 26.6 °F 18.2 °F 21.2 °F 80% 29.89 in 10.0 mi SE 8.1 mph - N/A   Mostly Cloudy
6:15 AM 26.6 °F 17.5 °F 21.2 °F 80% 29.88 in 10.0 mi SE 9.2 mph - N/A   Mostly Cloudy
6:35 AM 26.6 °F 17.5 °F 21.2 °F 80% 29.87 in 10.0 mi SSE 9.2 mph - N/A   Scattered Clouds
6:55 AM 26.6 °F 17.5 °F 21.2 °F 80% 29.87 in 10.0 mi SE 9.2 mph - N/A   Scattered Clouds
7:15 AM 26.6 °F 19.1 °F 21.2 °F 80% 29.87 in 10.0 mi SE 6.9 mph - N/A   Mostly Cloudy
7:35 AM 28.4 °F 21.2 °F 21.2 °F 74% 29.87 in 10.0 mi SE 6.9 mph - N/A   Overcast
7:55 AM 28.4 °F 21.2 °F 21.2 °F 74% 29.87 in 10.0 mi SE 6.9 mph - N/A   Overcast
8:15 AM 28.4 °F 23.3 °F 21.2 °F 74% 29.88 in 10.0 mi SE 4.6 mph - N/A   Overcast
8:35 AM 28.4 °F 21.2 °F 21.2 °F 74% 29.87 in 10.0 mi SE 6.9 mph - N/A   Overcast
8:55 AM 28.4 °F 20.4 °F 21.2 °F 74% 29.86 in 10.0 mi SE 8.1 mph - N/A   Overcast
9:15 AM 28.4 °F 22.2 °F 21.2 °F 74% 29.86 in 10.0 mi ESE 5.8 mph - N/A   Mostly Cloudy
9:55 AM 30.2 °F 24.3 °F 21.2 °F 69% 29.86 in 10.0 mi ESE 5.8 mph - N/A   Overcast
10:15 AM 30.2 °F 25.4 °F 23.0 °F 75% 29.85 in 10.0 mi SE 4.6 mph - N/A   Overcast
10:35 AM 30.2 °F 25.4 °F 23.0 °F 75% 29.86 in 10.0 mi ESE 4.6 mph - N/A   Overcast
10:55 AM 30.2 °F 23.4 °F 23.0 °F 75% 29.85 in 10.0 mi NNE 6.9 mph - N/A   Overcast
11:15 AM 32.0 °F 25.6 °F 23.0 °F 69% 29.83 in 10.0 mi SE 6.9 mph - N/A   Overcast
11:35 AM 32.0 °F 28.7 °F 23.0 °F 69% 29.83 in 10.0 mi SSE 3.5 mph - N/A   Mostly Cloudy
11:55 AM 32.0 °F - 23.0 °F 69% 29.82 in 10.0 mi Calm Calm - N/A   Scattered Clouds
1:15 PM - - - N/A% 29.82 in - Calm Calm - N/A   Unknown
1:35 PM 32.0 °F 28.7 °F 26.6 °F 80% 29.81 in 10.0 mi NNW 3.5 mph - N/A   Scattered Clouds
1:55 PM 32.0 °F - 26.6 °F 80% 29.81 in 10.0 mi Calm Calm - N/A   Overcast
2:15 PM 32.0 °F 28.7 °F 26.6 °F 80% 29.82 in 10.0 mi North 3.5 mph - N/A   Overcast
2:35 PM 32.0 °F 25.6 °F 26.6 °F 80% 29.83 in 10.0 mi North 6.9 mph - N/A   Unknown
2:55 PM 32.0 °F 24.8 °F 26.6 °F 80% 29.83 in 10.0 mi North 8.1 mph - 0.03 in   Overcast
3:15 PM 32.0 °F 24.8 °F 26.6 °F 80% 29.84 in 10.0 mi North 8.1 mph - N/A   Overcast
3:35 PM 32.0 °F 23.6 °F 26.6 °F 80% 29.84 in 10.0 mi North 10.4 mph - N/A   Overcast
3:55 PM 30.2 °F 21.9 °F 26.6 °F 86% 29.84 in 10.0 mi North 9.2 mph - N/A   Overcast
4:15 PM 30.2 °F 26.7 °F 26.6 °F 86% 29.83 in 10.0 mi North 3.5 mph - N/A   Overcast
4:35 PM 30.2 °F - 26.6 °F 86% 29.83 in 10.0 mi Calm Calm - N/A   Overcast
4:55 PM 30.2 °F 22.6 °F 24.8 °F 80% 29.84 in 10.0 mi North 8.1 mph - N/A   Overcast
5:15 PM 30.2 °F 24.3 °F 24.8 °F 80% 29.86 in 10.0 mi North 5.8 mph - N/A   Overcast
5:35 PM 30.2 °F 22.6 °F 24.8 °F 80% 29.87 in 10.0 mi North 8.1 mph - N/A   Overcast
5:55 PM 30.2 °F 21.9 °F 24.8 °F 80% 29.88 in 10.0 mi North 9.2 mph - N/A   Overcast
6:15 PM 30.2 °F 22.6 °F 26.6 °F 86% 29.89 in 10.0 mi North 8.1 mph - N/A   Overcast
6:35 PM 30.2 °F 22.6 °F 26.6 °F 86% 29.90 in 10.0 mi North 8.1 mph - N/A   Overcast
7:15 PM 30.2 °F 25.4 °F 26.6 °F 86% 29.92 in 10.0 mi NNW 4.6 mph - N/A   Overcast
7:35 PM 30.2 °F 24.3 °F 24.8 °F 80% 29.92 in 10.0 mi NNW 5.8 mph - N/A   Overcast
7:55 PM 30.2 °F 23.4 °F 24.8 °F 80% 29.92 in 10.0 mi North 6.9 mph - N/A   Overcast
8:15 PM 28.4 °F 22.2 °F 24.8 °F 86% 29.91 in 10.0 mi NE 5.8 mph - N/A   Overcast
8:35 PM 28.4 °F - 24.8 °F 86% 29.92 in 10.0 mi Calm Calm - N/A   Overcast
8:55 PM 28.4 °F - 26.6 °F 93% 29.93 in 10.0 mi Calm Calm - N/A   Overcast
9:15 PM 28.4 °F 24.6 °F 24.8 °F 86% 29.93 in 10.0 mi North 3.5 mph - N/A   Overcast
9:35 PM 28.4 °F - 26.6 °F 93% 29.94 in 10.0 mi Calm Calm - N/A   Overcast
9:55 PM 28.4 °F 23.3 °F 24.8 °F 86% 29.92 in 10.0 mi North 4.6 mph - N/A   Overcast
10:15 PM 28.4 °F - 24.8 °F 86% 29.91 in 10.0 mi Calm Calm - N/A   Mostly Cloudy
10:35 PM 26.6 °F - 24.8 °F 93% 29.91 in 10.0 mi Calm Calm - N/A   Scattered Clouds
10:55 PM 28.4 °F - 24.8 °F 86% 29.94 in 10.0 mi Calm Calm - N/A   Scattered Clouds
11:15 PM 28.4 °F 24.6 °F 24.8 °F 86% 29.92 in 10.0 mi NNE 3.5 mph - N/A   Scattered Clouds
11:35 PM 26.6 °F - 24.8 °F 93% 29.93 in 10.0 mi Calm Calm - N/A   Mostly Cloudy
11:55 PM 26.6 °F - 24.8 °F 93% 29.93 in 10.0 mi Calm Calm - N/A   Scattered Clouds